When you browse on this site, cookies collect data to enhance your experience and personalize the content and advertising you see.
Visit our Privacy Policy to learn more. By continuing to use the site, you agree to this use of cookies and data.
  • In Latvia
  • List of Countries
  • For 7 days
  • Water Temperature
  • Weather Map
  • Weather Widgets
  • user-avatar
    Login

    Hourly Weather La Massana

    Today, 12 November, Tuesday

    Time Temperature Precipitation Wind Pressure Humidity
    00:00 -6°C° 0 mm 3 mps 604 mmHg 91%
    01:00 -6°C° 0.2 mm 3 mps 603 mmHg 91%
    02:00 -6°C° 0.2 mm 3 mps 603 mmHg 91%
    03:00 -6°C° 0.2 mm 3 mps 603 mmHg 92%
    04:00 -7°C° 0 mm 3 mps 602 mmHg 90%
    05:00 -7°C° 0 mm 3 mps 602 mmHg 89%
    06:00 -7°C° 0 mm 3 mps 602 mmHg 87%
    07:00 -6°C° 0.1 mm 3 mps 603 mmHg 83%
    08:00 -4°C° 0.1 mm 3 mps 603 mmHg 80%
    09:00 -2°C° 0.1 mm 3 mps 603 mmHg 76%
    10:00 -1°C° 0.1 mm 3 mps 603 mmHg 74%
    11:00 -1°C° 0.1 mm 3 mps 604 mmHg 72%
    12:00 0°C° 0.1 mm 3 mps 604 mmHg 69%
    13:00 0°C° 0.2 mm 3 mps 603 mmHg 72%
    14:00 +1°C° 0.2 mm 2 mps 602 mmHg 76%
    15:00 -1°C° 0.2 mm 2 mps 602 mmHg 79%
    16:00 -1°C° 0.2 mm 2 mps 601 mmHg 84%
    17:00 -2°C° 0.2 mm 2 mps 601 mmHg 89%
    18:00 -3°C° 0.2 mm 2 mps 601 mmHg 94%
    19:00 -3°C° 0.1 mm 2 mps 601 mmHg 94%
    20:00 -3°C° 0.1 mm 2 mps 600 mmHg 94%
    21:00 -4°C° 0.1 mm 2 mps 600 mmHg 94%
    22:00 -4°C° 0 mm 2 mps 600 mmHg 93%
    23:00 -2°C° 0 mm 1 mps 599 mmHg 92%

    Tomorrow, 13 November, Wednesday

    Time Temperature Precipitation Wind Pressure Humidity
    00:00 -3°C° 0 mm 1 mps 599 mmHg 91%
    01:00 -2°C° 0 mm 1 mps 599 mmHg 87%
    02:00 -2°C° 0 mm 1 mps 598 mmHg 83%
    03:00 -2°C° 0 mm 1 mps 598 mmHg 78%
    04:00 -2°C° 0 mm 1 mps 598 mmHg 81%
    05:00 -1°C° 0 mm 1 mps 598 mmHg 83%
    06:00 -3°C° 0 mm 2 mps 598 mmHg 86%
    07:00 -3°C° 0.1 mm 2 mps 599 mmHg 85%
    08:00 -2°C° 0.1 mm 2 mps 600 mmHg 85%
    09:00 -1°C° 0.1 mm 2 mps 600 mmHg 84%
    10:00 -1°C° 0.1 mm 3 mps 601 mmHg 79%
    11:00 0°C° 0.1 mm 3 mps 601 mmHg 74%
    12:00 +1°C° 0.1 mm 3 mps 602 mmHg 69%
    13:00 0°C° 0 mm 3 mps 601 mmHg 71%
    14:00 0°C° 0 mm 3 mps 601 mmHg 73%
    15:00 0°C° 0 mm 3 mps 601 mmHg 75%
    16:00 -2°C° 0 mm 2 mps 601 mmHg 80%
    17:00 -4°C° 0 mm 2 mps 600 mmHg 84%
    18:00 -5°C° 0 mm 2 mps 600 mmHg 89%
    19:00 -5°C° 0 mm 2 mps 600 mmHg 80%
    20:00 -3°C° 0 mm 1 mps 599 mmHg 70%
    21:00 -3°C° 0 mm 1 mps 599 mmHg 61%
    22:00 -3°C° 0 mm 1 mps 599 mmHg 63%
    23:00 -5°C° 0 mm 2 mps 598 mmHg 64%

    Day after tomorrow, 14 November, Thursday

    Time Temperature Precipitation Wind Pressure Humidity
    00:00 -5°C° 0 mm 2 mps 598 mmHg 65%
    01:00 -5°C° 0.1 mm 2 mps 598 mmHg 73%
    02:00 -2°C° 0.1 mm 1 mps 598 mmHg 81%
    03:00 -1°C° 0.1 mm 1 mps 598 mmHg 89%
    04:00 -2°C° 1.2 mm 1 mps 597 mmHg 91%
    05:00 -2°C° 1.2 mm 1 mps 597 mmHg 94%
    06:00 -2°C° 1.2 mm 1 mps 597 mmHg 96%
    07:00 -2°C° 1.6 mm 1 mps 597 mmHg 96%
    08:00 -2°C° 1.6 mm 1 mps 597 mmHg 97%
    09:00 -4°C° 1.6 mm 2 mps 596 mmHg 97%
    10:00 -2°C° 1.5 mm 1 mps 596 mmHg 96%
    11:00 -2°C° 1.5 mm 1 mps 596 mmHg 95%
    12:00 -1°C° 1.5 mm 1 mps 596 mmHg 94%
    13:00 -2°C° 0.6 mm 1 mps 596 mmHg 94%
    14:00 -2°C° 0.6 mm 1 mps 595 mmHg 95%
    15:00 -4°C° 0.6 mm 2 mps 595 mmHg 95%
    16:00 -3°C° 1.4 mm 1 mps 595 mmHg 96%
    17:00 -4°C° 1.4 mm 1 mps 594 mmHg 96%
    18:00 -6°C° 1.4 mm 1 mps 594 mmHg 96%
    19:00 -7°C° 0.3 mm 1 mps 594 mmHg 94%
    20:00 -8°C° 0.3 mm 1 mps 594 mmHg 92%
    21:00 -10°C° 0.3 mm 2 mps 593 mmHg 90%
    22:00 -10°C° 0 mm 2 mps 593 mmHg 87%
    23:00 -10°C° 0 mm 2 mps 593 mmHg 85%

    15 November, Friday

    Time Temperature Precipitation Wind Pressure Humidity
    00:00 -10°C° 0 mm 2 mps 593 mmHg 82%
    01:00 -10°C° 0 mm 1 mps 593 mmHg 81%
    02:00 -10°C° 0 mm 1 mps 593 mmHg 79%
    03:00 -10°C° 0 mm 1 mps 594 mmHg 78%
    04:00 -10°C° 0 mm 1 mps 594 mmHg 78%
    05:00 -10°C° 0 mm 1 mps 594 mmHg 78%
    06:00 -12°C° 0 mm 2 mps 594 mmHg 79%
    07:00 -8°C° 0 mm 1 mps 595 mmHg 78%
    08:00 -6°C° 0 mm 1 mps 596 mmHg 78%
    09:00 -4°C° 0 mm 0 mps 597 mmHg 77%
    10:00 -3°C° 0 mm 1 mps 598 mmHg 77%
    11:00 -2°C° 0 mm 1 mps 598 mmHg 77%
    12:00 -1°C° 0 mm 1 mps 598 mmHg 78%
    13:00 -1°C° 0 mm 1 mps 598 mmHg 81%
    14:00 -4°C° 0 mm 2 mps 597 mmHg 85%
    15:00 -4°C° 0 mm 2 mps 597 mmHg 88%
    16:00 -5°C° 0 mm 2 mps 597 mmHg 91%
    17:00 -6°C° 0 mm 2 mps 597 mmHg 93%
    18:00 -7°C° 0 mm 2 mps 597 mmHg 95%
    19:00 -7°C° 0 mm 1 mps 597 mmHg 95%
    20:00 -7°C° 0 mm 1 mps 597 mmHg 94%
    21:00 -8°C° 0 mm 1 mps 597 mmHg 93%
    22:00 -8°C° 0 mm 1 mps 597 mmHg 92%
    23:00 -8°C° 0 mm 1 mps 598 mmHg 91%

    16 November, Saturday

    Time Temperature Precipitation Wind Pressure Humidity
    00:00 -9°C° 0 mm 1 mps 598 mmHg 90%
    01:00 -9°C° 0 mm 1 mps 598 mmHg 90%
    02:00 -10°C° 0 mm 2 mps 598 mmHg 89%
    03:00 -10°C° 0 mm 2 mps 598 mmHg 89%
    04:00 -10°C° 0 mm 2 mps 598 mmHg 88%
    05:00 -12°C° 0 mm 2 mps 599 mmHg 86%
    06:00 -12°C° 0 mm 2 mps 599 mmHg 85%
    07:00 -9°C° 0 mm 2 mps 600 mmHg 82%
    08:00 -7°C° 0 mm 1 mps 602 mmHg 78%
    09:00 -4°C° 0 mm 1 mps 603 mmHg 75%
    10:00 -3°C° 0 mm 1 mps 603 mmHg 74%
    11:00 -2°C° 0 mm 1 mps 604 mmHg 73%
    12:00 -1°C° 0 mm 1 mps 604 mmHg 72%
    13:00 -2°C° 0 mm 1 mps 604 mmHg 74%
    14:00 -2°C° 0 mm 1 mps 603 mmHg 76%
    15:00 -2°C° 0 mm 1 mps 603 mmHg 78%
    16:00 -6°C° 0 mm 2 mps 602 mmHg 79%
    17:00 -8°C° 0 mm 2 mps 602 mmHg 79%
    18:00 -12°C° 0 mm 2 mps 601 mmHg 80%
    19:00 -12°C° 0 mm 2 mps 601 mmHg 76%
    20:00 -12°C° 0 mm 2 mps 601 mmHg 72%
    21:00 -12°C° 0 mm 2 mps 601 mmHg 69%
    22:00 -12°C° 0 mm 2 mps 600 mmHg 67%
    23:00 -10°C° 0 mm 2 mps 600 mmHg 65%

    17 November, Sunday

    Time Temperature Precipitation Wind Pressure Humidity
    00:00 -10°C° 0 mm 2 mps 600 mmHg 64%
    01:00 -10°C° 0 mm 2 mps 599 mmHg 65%
    02:00 -10°C° 0 mm 2 mps 599 mmHg 65%
    03:00 -10°C° 0 mm 2 mps 599 mmHg 66%
    04:00 -9°C° 0 mm 2 mps 598 mmHg 65%
    05:00 -9°C° 0 mm 2 mps 598 mmHg 64%
    06:00 -9°C° 0 mm 2 mps 598 mmHg 62%
    07:00 -7°C° 0 mm 2 mps 599 mmHg 63%
    08:00 -3°C° 0 mm 1 mps 600 mmHg 64%
    09:00 -1°C° 0 mm 1 mps 601 mmHg 64%
    10:00 0°C° 0 mm 1 mps 601 mmHg 65%
    11:00 +1°C° 0 mm 1 mps 601 mmHg 65%
    12:00 +2°C° 0 mm 1 mps 601 mmHg 66%
    13:00 +2°C° 0 mm 1 mps 601 mmHg 71%
    14:00 +1°C° 0 mm 0 mps 600 mmHg 75%
    15:00 0°C° 0 mm 0 mps 600 mmHg 80%
    16:00 0°C° 0 mm 1 mps 600 mmHg 83%
    17:00 -1°C° 0 mm 1 mps 599 mmHg 86%
    18:00 -3°C° 0 mm 1 mps 599 mmHg 89%
    19:00 -3°C° 0.1 mm 1 mps 599 mmHg 90%
    20:00 -2°C° 0.1 mm 1 mps 599 mmHg 91%
    21:00 -2°C° 0.1 mm 1 mps 599 mmHg 93%
    22:00 -2°C° 0.1 mm 1 mps 599 mmHg 93%
    23:00 -2°C° 0.1 mm 1 mps 599 mmHg 93%
    Show more